Change the Weather History Date:

Wednesday, December 5, 2012

  Actual Average Record
Temperature  
Mean Temperature 34 °F -  
Max Temperature 37 °F 26 °F 37 °F (2012)
Min Temperature 32 °F 4 °F -34 °F (2011)
Degree Days  
Heating Degree Days 30    
Moisture  
Dew Point -    
Average Humidity    
Maximum Humidity    
Minimum Humidity    
Precipitation  
Precipitation 0.00 in - - ()
Sea Level Pressure  
Sea Level Pressure 29.99 in    
Wind  
Wind Speed 5 mph (SSW)    
Max Wind Speed 16 mph    
Max Gust Speed 29 mph    
Visibility 6 miles    
Events Rain , Snow    
Averages and records for this station are not official NWS values.
T = Trace of Precipitation, MM = Missing Value Source: NWS Daily Summary

Daily Weather History Graph

Daily Weather History Graph

Search for Another Location

Airport or City:

Trip Planner

Search our weather history database for the weather conditions in past years. The results will help you decide how hot, cold, wet, or windy it might be!

Date:

Astronomy

Dec. 05, 2012 Rise Set
Actual Time 7:46 AM MST 4:44 PM MST
Civil Twilight 7:13 AM MST 5:17 PM MST
Nautical Twilight 6:36 AM MST 5:54 PM MST
Astronomical Twilight 6:01 AM MST 6:29 PM MST
Moon 11:50 PM MST (12/5) 12:00 PM MST (12/5)
Length of Visible Light 10h 04m
Length of Day
8h 57m
Waning Gibbous, 59% of the Moon is Illuminated
Dec 5
Waning Gibbous
Dec 6
Last Quarter
Dec 13
New
Dec 19
First Quarter
Dec 28
Full

Hourly Weather History & Observations

Time (MST) Temp. Windchill Dew Point Humidity Pressure Visibility Wind Dir Wind Speed Gust Speed Precip Events Conditions
12:10 AM 32.0 °F - - N/A% 30.10 in 2.5 mi Calm Calm - N/A Snow Light Snow
12:50 AM 32.0 °F 25.6 °F - N/A% 30.09 in 3.0 mi SSW 6.9 mph - N/A   Overcast
1:10 AM 33.8 °F 25.8 °F - N/A% 30.08 in 3.0 mi SW 10.4 mph - N/A   Overcast
1:30 AM 32.0 °F - - N/A% 30.07 in 2.0 mi Calm Calm - N/A Snow Light Snow
1:50 AM 32.0 °F - - N/A% 30.07 in 2.0 mi Calm Calm - N/A Snow Light Snow
2:10 AM 32.0 °F - - N/A% 30.07 in 2.5 mi Calm Calm - N/A Snow Light Snow
2:30 AM 33.8 °F - - N/A% 30.07 in 3.0 mi Calm Calm - N/A   Overcast
2:50 AM 32.0 °F 28.7 °F - N/A% 30.06 in 3.0 mi ESE 3.5 mph - N/A Rain Light Rain
3:10 AM 32.0 °F 28.7 °F - N/A% 30.05 in 3.0 mi North 3.5 mph - N/A Rain Light Rain
3:30 AM 32.0 °F - - N/A% 30.04 in 3.0 mi Calm Calm - N/A Rain Light Rain
3:50 AM 33.8 °F 28.6 °F - N/A% 30.03 in 4.0 mi North 5.8 mph - N/A Rain Light Rain
4:10 AM 33.8 °F - - N/A% 30.03 in 3.0 mi Calm Calm - N/A Rain Light Rain
4:30 AM 33.8 °F - - N/A% 30.03 in 3.0 mi Calm Calm - N/A Rain Light Rain
4:50 AM 33.8 °F 30.8 °F - N/A% 30.02 in 2.0 mi NNE 3.5 mph - N/A Rain Light Rain
5:10 AM 35.6 °F - - N/A% 30.02 in 2.5 mi Calm Calm - N/A Rain Light Rain
5:30 AM 33.8 °F 29.6 °F - N/A% 30.00 in 2.5 mi NNE 4.6 mph - N/A Rain Light Rain
5:50 AM 33.8 °F 30.8 °F - N/A% 30.00 in 2.5 mi North 3.5 mph - N/A Rain Light Rain
7:30 AM 33.8 °F 27.7 °F - N/A% 29.98 in 6.0 mi SSW 6.9 mph - N/A Rain Light Rain
7:50 AM 33.8 °F - - N/A% 29.98 in 2.5 mi Calm Calm - N/A Snow Light Snow
8:10 AM 32.0 °F - - N/A% 29.98 in 1.0 mi Calm Calm - N/A Snow Light Snow
8:30 AM 32.0 °F 27.5 °F - N/A% 29.98 in 0.8 mi South 4.6 mph - N/A Snow Light Snow
8:50 AM 32.0 °F 28.7 °F - N/A% 29.97 in 1.2 mi SE 3.5 mph - N/A Snow Light Snow
9:10 AM 32.0 °F - - N/A% 29.97 in 3.0 mi Calm Calm - N/A   Scattered Clouds
9:30 AM 32.0 °F 28.7 °F - N/A% 29.97 in 2.0 mi SE 3.5 mph - N/A Snow Light Snow
9:50 AM 32.0 °F 26.4 °F - N/A% 29.97 in 2.0 mi ESE 5.8 mph - N/A Snow Light Snow
10:10 AM 33.8 °F 28.6 °F - N/A% 29.97 in 5.0 mi SSE 5.8 mph - N/A Rain Light Rain
10:30 AM 33.8 °F 28.6 °F - N/A% 29.97 in 3.0 mi SSW 5.8 mph - N/A Snow Light Snow
10:50 AM 33.8 °F 27.7 °F - N/A% 29.97 in 3.0 mi South 6.9 mph - N/A   Partly Cloudy
11:10 AM 33.8 °F 26.4 °F - N/A% 29.96 in 5.0 mi South 9.2 mph - N/A Rain Light Rain
11:30 AM 33.8 °F 24.8 °F - N/A% 29.94 in 8.0 mi South 12.7 mph - N/A Rain Light Rain
11:50 AM 33.8 °F 26.4 °F - N/A% 29.94 in 10.0 mi SSE 9.2 mph - N/A   Mostly Cloudy
12:10 PM 35.6 °F 27.1 °F - N/A% 29.94 in 5.0 mi SW 12.7 mph 28.8 mph N/A   Haze
12:30 PM 35.6 °F 31.7 °F - N/A% 29.94 in 5.0 mi South 4.6 mph 17.3 mph N/A   Haze
12:50 PM 35.6 °F 29.2 °F - N/A% 29.94 in 4.0 mi East 8.1 mph - N/A   Haze
1:10 PM 35.6 °F 29.9 °F - N/A% 29.94 in 7.0 mi East 6.9 mph - N/A   Overcast
1:30 PM 35.6 °F - - N/A% 29.95 in 3.0 mi Calm Calm - N/A   Overcast
1:50 PM 35.6 °F 30.7 °F - N/A% 29.95 in 3.0 mi SW 5.8 mph - N/A   Overcast
2:10 PM 37.4 °F 31.4 °F - N/A% 29.95 in 5.0 mi SW 8.1 mph 17.3 mph N/A   Haze
2:30 PM 35.6 °F - - N/A% 29.96 in 5.0 mi Calm Calm - N/A   Haze
2:50 PM 35.6 °F 31.7 °F - N/A% 29.96 in 3.0 mi SW 4.6 mph - N/A   Overcast
3:10 PM 35.6 °F 29.2 °F - N/A% 29.96 in 7.0 mi SSW 8.1 mph - N/A   Overcast
3:30 PM 35.6 °F 29.9 °F - N/A% 29.97 in 9.0 mi SW 6.9 mph - N/A   Mostly Cloudy
3:50 PM 35.6 °F 30.7 °F - N/A% 29.97 in 7.0 mi SSW 5.8 mph - N/A   Overcast
4:10 PM 35.6 °F 28.6 °F - N/A% 29.97 in 9.0 mi South 9.2 mph 16.1 mph N/A   Mostly Cloudy
4:30 PM 35.6 °F 26.6 °F - N/A% 29.97 in 8.0 mi SSW 13.8 mph - N/A   Overcast
4:50 PM 35.6 °F 28.0 °F - N/A% 29.97 in 10.0 mi SSW 10.4 mph - N/A   Mostly Cloudy
5:10 PM 35.6 °F 28.6 °F - N/A% 29.98 in 10.0 mi SW 9.2 mph - N/A   Overcast
5:30 PM 35.6 °F 26.6 °F - N/A% 29.97 in 10.0 mi SW 13.8 mph - N/A   Mostly Cloudy
5:50 PM 35.6 °F 26.6 °F - N/A% 29.97 in 10.0 mi SW 13.8 mph 18.4 mph N/A   Partly Cloudy
6:10 PM 35.6 °F 26.2 °F - N/A% 29.98 in 10.0 mi SSW 15.0 mph - N/A   Clear
6:30 PM 35.6 °F 27.5 °F - N/A% 29.98 in 9.0 mi SW 11.5 mph 17.3 mph N/A Rain Light Rain
6:50 PM 35.6 °F 25.9 °F - N/A% 29.98 in 10.0 mi SSW 16.1 mph - N/A   Mostly Cloudy
7:10 PM 35.6 °F 27.1 °F - N/A% 29.98 in 10.0 mi SW 12.7 mph 17.3 mph N/A   Overcast
7:30 PM 35.6 °F 25.9 °F - N/A% 29.99 in 10.0 mi SSW 16.1 mph - N/A   Overcast
7:50 PM 35.6 °F 26.6 °F - N/A% 29.99 in 10.0 mi SW 13.8 mph 21.9 mph N/A   Overcast
8:10 PM 35.6 °F 26.2 °F - N/A% 29.99 in 10.0 mi SSW 15.0 mph - N/A   Overcast
8:30 PM 35.6 °F 26.2 °F - N/A% 29.99 in 10.0 mi SSW 15.0 mph 18.4 mph N/A   Overcast
8:50 PM 35.6 °F 27.5 °F - N/A% 30.00 in 5.0 mi SW 11.5 mph - N/A Rain Light Rain
9:10 PM 35.6 °F 26.6 °F - N/A% 30.00 in 10.0 mi SSW 13.8 mph 19.6 mph N/A   Overcast
9:30 PM 35.6 °F 28.6 °F - N/A% 30.00 in 10.0 mi SSW 9.2 mph - N/A   Overcast
9:50 PM 33.8 °F 26.4 °F - N/A% 30.00 in 10.0 mi SW 9.2 mph - N/A   Overcast
10:10 PM 33.8 °F 24.8 °F - N/A% 30.00 in 10.0 mi SW 12.7 mph - N/A   Overcast
10:30 PM 33.8 °F 25.3 °F - N/A% 30.00 in 10.0 mi SW 11.5 mph - N/A   Overcast
10:50 PM 33.8 °F 24.8 °F - N/A% 30.00 in 10.0 mi SW 12.7 mph 17.3 mph N/A   Overcast
11:10 PM 33.8 °F 24.8 °F - N/A% 30.00 in 10.0 mi SW 12.7 mph 18.4 mph N/A   Overcast
11:30 PM 32.0 °F 23.0 °F - N/A% 30.00 in 10.0 mi SW 11.5 mph - N/A   Mostly Cloudy
11:50 PM 32.0 °F 22.5 °F - N/A% 30.00 in 10.0 mi SSW 12.7 mph - N/A   Scattered Clouds